Terminal Aerodrome Forecast
Issued by NWS

Home | Current Version | Previous Version | Text Only | Print | Product List | Glossary On
Versions: 1 2 3 4 5 6 7 8 9 10 11 12 13 14 15 16 17 18 19 20 21
000
FTPA31 PHFO 240524
TAFHTO
TAF
PHTO 240524Z 2406/2506 VRB06KT P6SM -SHRA SCT025 BKN035 OVC050
      TEMPO 2406/2410 BKN025 OVC035
     FM242000 09009KT P6SM VCSH BKN035 BKN050=

USA.gov is the U.S. government's official web portal to all federal, state and local government web resources and services.